Weather Roundup
Issued by NWS

Home | Current Version | Previous Version | Text Only | Print | Product List | Glossary On
Versions: 1 2 3 4 5 6 7 8 9 10 11 12 13 14 15 16 17 18 19 20 21 22 23 24 25 26 27 28 29 30 31 32 33 34 35 36 37 38 39 40 41 42 43 44 45 46 47 48 49 50
000
NZUS93 KARX 030859
HRRWXR

CURRENT HOURLY OBSERVATIONS ACROSS
MUCH OF THE UPPER MISSISSIPPI VALLEY
NATIONAL WEATHER SERVICE LA CROSSE WI
400 AM CDT MON AUG 03 2015


...SOUTHEAST MINNESOTA...


CITY           SKY/WX    TMP DP  RH WIND       PRES   REMARKS
ROCHESTER      CLEAR     56  52  86 NW9       29.89S
ROCHESTER/MAYO FAIR      60  53  77 W6        29.88F
WINONA         CLEAR     59  54  82 CALM      29.86R
AUSTIN         CLEAR     59  54  82 NW3       29.90R
ALBERT LEA     CLEAR     57  54  88 CALM      29.91R
DODGE CENTER   PTCLDY    57  52  82 NW5       29.89F
PRESTON        CLEAR     56  52  86 NW7       29.89S
OWATONNA       CLEAR     52  48  87 CALM      29.89S
FARIBAULT      CLEAR     55  52  88 CALM      29.89S
$$

...ELSEWHERE IN MINNESOTA...


CITY           SKY/WX    TMP DP  RH WIND       PRES   REMARKS
MINNEAPOLIS    CLEAR     63  52  67 W3        29.87S
INTNL FALLS    CLOUDY    56  50  80 W5        29.76S
DULUTH         CLEAR     55  46  71 W10       29.78F
RED WING       CLEAR     55  52  88 CALM      29.86R
REDWOOD FALLS  CLEAR     56  51  84 W7        29.91S
MANKATO        CLEAR     59  52  77 CALM      29.89F
WORTHINGTON    CLEAR     55  50  82 N5        29.95S
FAIRMONT       CLEAR     57  48  72 NW6       29.92S
$$

...SOUTHWEST WISCONSIN...


CITY           SKY/WX    TMP DP  RH WIND       PRES   REMARKS
LA CROSSE      CLEAR     62  52  69 N3        29.84R
PRAIRIE DU CHI CLEAR     65  56  74 NW3       29.84R
BOSCOBEL       CLEAR     61  55  81 CALM      29.84R
LONE ROCK      NOT AVBL
PLATTEVILLE    PTCLDY    66  60  79 N7        29.83R
FORT MC COY    CLEAR     54  49  82 CALM      29.84R
VIROQUA        FAIR      58  51  79 NW3       29.85S
WIS DELLS      CLEAR     64  52  64 NW5       29.81R
$$

...ELSEWHERE IN WISCONSIN...


CITY           SKY/WX    TMP DP  RH WIND       PRES   REMARKS
MILWAUKEE      CLEAR     67  59  75 NW5       29.75R
MADISON        CLEAR     64  58  80 CALM      29.80R
GREEN BAY      PTCLDY    60  57  89 NW9       29.75S
EAU CLAIRE     CLEAR     57  48  72 W6        29.83S
BLACK RVR FLS  FAIR      50  50 100 CALM      29.82S
MEDFORD        CLEAR     53  50  89 W6        29.81S
WAUSAU         CLEAR     59  52  77 N3        29.77F
WIS RAPIDS     CLEAR     58  52  80 W6        29.81S
MARSHFIELD     CLEAR     57  49  74 NW7       29.81S
RICE LAKE      CLEAR     53  48  83 CALM      29.84F
$$

...NORTHEAST IOWA...


CITY           SKY/WX    TMP DP  RH WIND       PRES   REMARKS
DECORAH        CLEAR     61  57  88 CALM      29.87R
MASON CITY     CLEAR     58  56  93 NW7       29.92S
CHARLES CITY   CLEAR     57  57 100 NW5       29.89S
OELWEIN        FAIR      61  59  94 NW6       29.88S
$$

...ELSEWHERE IN IOWA...


CITY           SKY/WX    TMP DP  RH WIND       PRES   REMARKS
DES MOINES     PTCLDY    72  59  63 N6        29.91S
IOWA CITY      PTCLDY    67  61  81 W8        29.86R
FORT DODGE     CLEAR     57  55  94 SW3       29.93R
$$

...NORTHERN ILLINOIS...


CITY           SKY/WX    TMP DP  RH WIND       PRES   REMARKS
CHICAGO-OHARE  PTCLDY    68  66  93 W7        29.76R
CHICAGO-MIDWAY MOCLDY    69  64  84 CALM      29.76R
MOLINE         PTCLDY    69  62  78 W6        29.82R
ROCKFORD       MOCLDY    70  63  78 NW6       29.80R
PEORIA         CLEAR     74  64  71 NW5       29.80R
$$

NOTE: "FAIR" INDICATES FEW OR NO CLOUDS BELOW 12,000 FEET WITH NO
SIGNIFICANT WEATHER AND/OR OBSTRUCTIONS TO VISIBILITY. WIND
SPEEDS ARE IN MILES-PER-HOUR.



USA.gov is the U.S. government's official web portal to all federal, state and local government web resources and services.